ONEWEB-0015, 61594

Orbit data source: Space-Track

ONEWEB-0015, 61594 is a payload satellite owned by Eut. One Web (UK) in LEO that was launched on Sun, 20 Oct 2024 UTC via an FALCON 9 launch vehicle from the Air Force Western Test Range (AFWTR). Payload-class satellites include a variety of spacecraft equipped with specific instruments for various scientific and technological missions. These include communications satellites like Starlink; space stations such as the ISS; scientific satellites like the Hubble; Earth observation satellites from companies like Planet Labs, Umbra, and HawkEye 360; GPS; miniature CubeSats for education and research; and military/defense satellites.

Loading next visibility...
Identifier
61594, 2024-188A
Orbit
LEO
Country
Flag of UKUK
Related business
Manufacturer
One Web
Mission
Operational Commercial Communications
Bus & Motor
ARROW, Unknown motor
Mass
148 kg wet, ~140 kg dry
Launch date (UTC)
2024-10-20 (11 months ago)
Launch vehicle
FALCON 9
Launch site
Air Force Western Test Range (AFWTR)
Object type
Payload
Rocket body
Debris
Shape & HBR
Trap Box + 2 Pan, 2.5 m
Radar Cross Section
2.032 m², Large (>1 m²)

Expand to show TLE details & history
Last TLE update: 19 hours ago

TLE from 19 hours ago
0 ONEWEB-0015
1 61594U 24188A   25261.00628884  .00000442  00000-0  12125-2 0  9993
2 61594  87.8781  75.3235 0002223  79.4646 280.6733 13.11419152 48780
Epoch: 2025-09-18T00:09Z
TLE epoch observation values (Epoch: 2025-09-18T00:09:03.355Z)
Latitude
0.00003°
Longitude
75.88544°
Altitude
1,220.251 km
Speed
7.244 km/s
True Right ascension
05h 01m 17s
True Declination
0° 00' 00"
Sunlit
Object was in daylight at epoch
Visualization orbit readout
Latitude
Unknown
Longitude
Unknown
Altitude
Unknown
Speed
Unknown
Apparent Right ascension
Unknown
Apparent Declination
Unknown
Sunlit
N/A
Visualization observer readout
Local Sidereal Time
12:01:37
Azimuth
Unknown
Elevation
Unknown
Doppler factor
Unknown
Orbital elements
Apogee altitude
1,216.48 km
Perigee altitude
1,213.105 km
Semi-major axis
7,592.93 km
Eccentricity
0.00022
Inclination
87.8781°
RAAN
75.3235°
Arg. of periapsis
79.4646°
True anomaly
280.64827°
Mean anomaly
280.6733°
Eccentric anomaly
280.66078°
Mean motion
3.28042 °/min
Orbital period
109.74 mins
BSTAR
0.0012125
Loading maneuver chart data...
Computing Atmospheric mass density...
Loading historical data...
Loading historical data...
Loading historical data...
Loading historical data...
Loading historical data...
Loading historical data...
Loading historical data...

Documentation

Showing up to 5 results
|